Regional Weather Roundup
Issued by NWS Mobile, AL

Home | Current Version | Previous Version | Text Only | Print | Product List | Glossary On
Versions: 1 2 3 4 5 6 7 8 9 10 11 12 13 14 15 16 17 18 19 20 21 22 23 24 25 26 27 28 29 30 31 32 33 34 35 36 37 38 39 40 41 42 43 44 45 46 47 48 49 50
000
ASUS44 KMOB 220910
RWRMOB
REGIONAL WEATHER ROUNDUP
NATIONAL WEATHER SERVICE MOBILE AL
400 AM CDT TUE JUL 22 2014

NOTE: "FAIR" INDICATES FEW OR NO CLOUDS BELOW 12,000 FEET WITH NO
      SIGNIFICANT WEATHER AND/OR OBSTRUCTIONS TO VISIBILITY.

  * THESE STATIONS ARE PART OF THE UNIVERSITY OF SOUTH ALABAMA
    MESONET AND ARE NOT UNDER NWS OR FAA QUALITY CONTROL.

ALZ061>064-221000-
COASTAL ALABAMA

CITY           SKY/WX    TMP DP  RH WIND       PRES   REMARKS
MOBILE REG APT MOCLDY    74  74 100 W5        29.98F FOG
BROOKLEY FIELD MOCLDY    76  75  97 W5        29.98S
USA CAMPUS*      N/A     73  73 100 CALM      29.97S
DOG RIVER*       N/A     77  75  94 W2        29.97F


CITY           SKY/WX    TMP DP  RH WIND       PRES   REMARKS
MOUNT VERNON*    N/A     72  70  94 CALM      29.98S
SARALAND*      NOT AVBL
BAY MINETTE*   NOT AVBL
LOXLEY*          N/A    N/A N/A N/A E5        29.98R
ROBERTSDALE*     N/A    N/A N/A N/A SE3       29.98R
FAIRHOPE*        N/A     75  75 100 CALM      29.97S
ELBERTA*         N/A     77  64  65 CALM      29.97S
FOLEY*         NOT AVBL
GRAND BAY*       N/A     73  73 100 CALM      29.96S
DAUPHIN ISLND* NOT AVBL
BON SCOUR NWR* NOT AVBL
GULF SHORES    MOCLDY    79  76  91 S5        29.97S

$$

ALZ051>060-221000-
INTERIOR SOUTHWEST AND SOUTH CENTRAL ALABAMA

CITY           SKY/WX    TMP DP  RH WIND       PRES   REMARKS
GREENVILLE     CLOUDY    75  72  90 SE6       30.01S
EVERGREEN      CLOUDY    75  74  96 E5        30.01S FOG
CASTLEBERRY*   NOT AVBL
ATMORE*          N/A     73  73 100 E2        30.01S
DIXIE*         NOT AVBL
ANDALUSIA/OPP  CLOUDY    79  73  83 SE3       30.01F
ANDALUSIA*     NOT AVBL
FLORALA APT    FOG       75  73  93 CALM      30.03S VSB 3/4
FLORALA*         N/A     73  72  94 S2        29.98F

$$

FLZ001>006-221000-
WESTERN FLORIDA PANHANDLE

CITY           SKY/WX    TMP DP  RH WIND       PRES   REMARKS
PENSACOLA      CLEAR     75  74  96 CALM      29.98S
NAS PENSACOLA  CLEAR     77  76  96 S6        29.98R
MILTON         PTCLDY    73  70  90 CALM      29.99S FOG
WHTNG S FIELD  PTCLDY    74  71  91 E3        29.99S


CITY           SKY/WX    TMP DP  RH WIND       PRES   REMARKS
WALNUT HILL*   NOT AVBL
JAY*           NOT AVBL
DUKE FIELD     MOCLDY    74  74 100 E2        30.00R
CRESTVIEW      CLOUDY    74  74 100 E3        30.02R FOG
VALPARAISO     MOCLDY    77  76  95 NE2       29.98F
DESTIN         PTCLDY    78  75  90 E8        29.99S

$$

MSZ076-079-221000-
INTERIOR SOUTHEAST MISSISSIPPI

CITY           SKY/WX    TMP DP  RH WIND       PRES   REMARKS
LEAKESVILLE*     N/A     73  72  94 CALM        N/A
AGRICOLA*      NOT AVBL

$$

MARINE OBSERVATIONS

STATION/POSITION TIME  TEMP    WIND        PRES    WAVE
                       AIR SEA DIR/SP/G            HT/PER
                 (UTC) (F)     (DEG/KT/KT) (MB)    (FT/S)
PASCAGOULA       0900   78     310/  5/  5 1014.7S
PETIT BOIS ISLND 0900   81     270/  9/ 11 1015.2F
GRAND BAY        0800   77     290/  4     1016.0S
KATRINA CUT      0800   82     270/  8     1015.6S
CEDAR POINT      0800   80     320/  4     1014.9S
E DAUPHIN ISLAND 0800   81     240/  6/  8 1014.6F
MIDDLE BAY LIGHT 0800   80     290/  7     1014.2F
USCG MOBILE BAY  0900   78 84  320/  4/  5 1013.7F
STATE DOCKS      0900   78 84              1014.6S
MEAHER PARK      0800   78     360/  2     1014.6F
WEEKS BAY        0800   73                   N/A
12 S ORANGE BCH  0800   82 82  210/  8/ 10 1015.1F   2/ 5
PENSACOLA BAY    0900   82 83  180/  4/  7 1015.4S
64 S DAUPHIN ISL 0808   82 83  280/  6/  6 1015.2
67 S FORT MORGAN 0800   81                 1014.9F

$$

SELECTED LOCATIONS ACROSS THE REGION

CITY           SKY/WX    TMP DP  RH WIND       PRES   REMARKS
NEW ORLEANS    MOCLDY    77  73  87 CALM      29.99S
GULFPORT       PTCLDY    77  70  79 W5        29.98S
PASCAGOULA AP  PTCLDY    73  72  96 CALM      29.98S
PASCAGOULA*      N/A     75  72  88 CALM      29.97S
HATTIESBURG    MOCLDY    74  72  93 CALM      30.00S
LAUREL         MOCLDY    73  70  88 N5        30.01F
MERIDIAN       MOCLDY    72  69  90 N5        30.01S
JACKSON        CLEAR     72  69  90 CALM      30.02S
MONTGOMERY     PTCLDY    75  72  90 NE3       30.01F
TROY           CLOUDY    74  72  93 E6        30.03S
KINSTON*       NOT AVBL
GENEVA*          N/A     70  68  94 CALM      30.03F
ASHFORD*       NOT AVBL
DOTHAN         CLOUDY    74  72  93 CALM      30.06F
PANAMA CITY    CLEAR     73  70  90 E5        29.99F

$$




USA.gov is the U.S. government's official web portal to all federal, state and local government web resources and services.